FW2739 Weather Reports


Display with metric or nautical units.
time (UTC)temp
F
wind
direction
speed
MPH
gust
MPH
rain 1hr
in
rain 24hr
in
rain mn
in
humidity
%
barometer
mb
20191206074652 30 296 0.0 3.0 0.00 0.12 0.00 77 1017.5
20191206073106 29 293 0.0 0.0 0.00 0.12 0.00 78 1017.8
20191206071601 28 293 0.0 0.0 0.00 0.12 0.00 78 1017.8
20191206070109 27 293 0.0 0.0 0.00 0.12 0.00 78 1017.8
20191206064702 27 293 0.0 0.0 0.00 0.12 0.00 77 1017.9
20191206063104 27 293 0.0 0.0 0.00 0.12 0.00 77 1018.1
20191206061634 27 293 0.0 0.0 0.00 0.12 0.00 76 1018.1
20191206060052 28 293 0.0 0.0 0.00 0.12 0.00 76 1018.4
20191206054615 28 293 0.0 0.0 0.00 0.12 0.00 76 1018.6
20191206053051 28 293 0.0 0.0 0.00 0.12 0.00 75 1018.9
20191206051612 29 293 0.0 0.0 0.00 0.12 0.00 76 1019.0
20191206050102 29 293 0.0 0.0 0.00 0.12 0.12 76 1019.2
20191206044553 29 293 0.0 0.0 0.00 0.12 0.12 76 1019.3
20191206043121 29 293 0.0 0.0 0.00 0.12 0.12 76 1019.4
20191206041522 30 293 0.0 0.0 0.00 0.12 0.12 76 1019.6
20191206040107 30 293 0.0 0.0 0.00 0.12 0.12 76 1019.8
20191206034530 30 293 0.0 0.0 0.00 0.12 0.12 77 1019.9
20191206033044 30 293 0.0 0.0 0.00 0.12 0.12 76 1019.7
20191206031527 30 293 0.0 0.0 0.00 0.12 0.12 76 1019.8
20191206030027 30 293 0.0 0.0 0.00 0.12 0.12 77 1019.8
20191206024546 30 293 0.0 0.0 0.00 0.12 0.12 76 1019.8
20191206023022 30 293 0.0 0.0 0.00 0.12 0.12 76 1020.0
20191206021536 30 293 0.0 0.0 0.00 0.12 0.12 76 1020.3
20191206020017 30 293 0.0 0.0 0.00 0.12 0.12 76 1020.4
20191206014545 30 293 0.0 0.0 0.00 0.12 0.12 76 1020.2
20191206013034 30 293 0.0 0.0 0.00 0.12 0.12 76 1020.4
20191206011541 30 293 0.0 0.0 0.00 0.12 0.12 76 1020.4
20191206010013 30 293 0.0 0.0 0.00 0.12 0.12 75 1020.5
20191206004511 30 293 0.0 0.0 0.00 0.12 0.12 75 1020.3
20191206003022 30 293 0.0 0.0 0.00 0.12 0.12 75 1020.2
20191206001541 30 293 0.0 0.0 0.00 0.12 0.12 75 1020.4
20191206000010 30 293 0.0 0.0 0.00 0.12 0.12 75 1020.4
20191205234536 30 293 0.0 0.0 0.00 0.12 0.12 74 1020.7
20191205233010 30 293 0.0 0.0 0.00 0.12 0.12 74 1020.6
20191205231537 30 293 0.0 0.0 0.00 0.12 0.12 74 1020.5
20191205230006 30 293 0.0 0.0 0.00 0.13 0.12 74 1020.5
20191205224503 30 293 0.0 0.0 0.00 0.13 0.12 72 1020.0
20191205223002 31 293 0.0 0.0 0.00 0.13 0.12 72 1019.7
20191205221502 32 293 0.0 0.0 0.01 0.13 0.12 70 1019.6
20191205220213 33 293 0.0 0.0 0.01 0.13 0.12 69 1019.6
20191205214643 34 293 0.0 2.0 0.02 0.13 0.12 67 1019.5
20191205213159 34 294 0.0 3.0 0.02 0.13 0.12 66 1019.2
20191205211654 35 5 0.0 3.0 0.02 0.12 0.11 65 1019.4
20191205210209 35 329 1.0 4.0 0.03 0.13 0.11 65 1019.2
20191205204640 35 235 0.0 5.0 0.03 0.12 0.10 64 1019.0
20191205203149 35 240 1.0 6.0 0.03 0.12 0.10 63 1019.0
20191205201629 35 304 1.0 4.0 0.03 0.11 0.09 63 1018.9
20191205200134 35 305 1.0 12.0 0.03 0.11 0.08 63 1018.8
20191205194714 35 328 2.0 8.0 0.03 0.10 0.07 63 1018.7
20191205193156 35 263 2.0 10.0 0.03 0.09 0.06 64 1018.4
20191205191632 35 273 2.0 14.0 0.05 0.09 0.06 64 1018.3
20191205190229 35 299 2.0 7.0 0.04 0.11 0.05 63 1018.2
20191205184700 35 279 2.0 7.0 0.03 0.10 0.04 63 1018.3
20191205183129 35 327 4.0 8.0 0.03 0.09 0.03 63 1017.9
20191205181619 35 256 2.0 9.0 0.01 0.07 0.01 64 1018.2
20191205180058 35 309 3.0 9.0 0.01 0.08 0.01 63 1018.0
20191205174611 35 288 3.0 9.0 0.01 0.08 0.01 66 1017.7
20191205173118 34 264 1.0 12.0 0.00 0.07 0.00 66 1017.7
20191205171557 33 269 1.0 9.0 0.00 0.07 0.00 67 1017.6
20191205170042 33 284 3.0 11.0 0.00 0.07 0.00 69 1017.7
20191205164609 33 250 2.0 8.0 0.00 0.07 0.00 68 1017.7
20191205163119 33 248 0.0 6.0 0.00 0.07 0.00 70 1017.6
20191205161541 33 23 0.0 8.0 0.00 0.07 0.00 70 1017.7
20191205160107 33 326 0.0 9.0 0.00 0.07 0.00 70 1017.5
20191205154546 33 188 0.0 5.0 0.00 0.07 0.00 70 1017.4
20191205153041 33 261 2.0 6.0 0.00 0.07 0.00 71 1017.2
20191205151538 32 12 1.0 3.0 0.00 0.07 0.00 71 1017.0
20191205150035 32 300 0.0 4.0 0.00 0.07 0.00 73 1016.9
20191205144533 31 307 2.0 6.0 0.00 0.07 0.00 73 1016.9
20191205143013 31 313 1.0 4.0 0.00 0.07 0.00 74 1016.5
20191205141538 31 65 1.0 5.0 0.00 0.07 0.00 74 1016.2
20191205140005 31 196 0.0 4.0 0.00 0.07 0.00 75 1015.9
20191205134735 30 203 0.0 2.0 0.00 0.07 0.00 75 1015.7
20191205133143 30 200 0.0 3.0 0.00 0.07 0.00 75 1015.5
20191205131732 30 190 0.0 3.0 0.00 0.07 0.00 75 1015.2
20191205130134 30 238 0.0 4.0 0.00 0.07 0.00 75 1015.0
20191205124742 30 262 0.0 3.0 0.00 0.07 0.00 76 1014.8
20191205123124 30 181 1.0 3.0 0.00 0.07 0.00 76 1014.7
20191205121703 30 276 0.0 3.0 0.00 0.07 0.00 76 1014.6
20191205120134 30 295 0.0 3.0 0.00 0.07 0.00 76 1014.2
20191205114617 30 19 0.0 3.0 0.00 0.07 0.00 75 1013.9
20191205113252 30 188 0.0 4.0 0.00 0.07 0.00 75 1013.7
20191205111613 30 284 0.0 5.0 0.00 0.07 0.00 75 1013.5
20191205110058 30 308 2.0 4.0 0.00 0.07 0.00 76 1013.4
20191205104635 30 293 1.0 4.0 0.00 0.07 0.00 76 1013.0
20191205103131 30 252 1.0 5.0 0.00 0.07 0.00 76 1012.9
20191205101600 30 283 1.0 5.0 0.00 0.07 0.00 77 1012.6
20191205100046 30 293 0.0 5.0 0.00 0.07 0.00 77 1012.5
20191205094618 30 287 1.0 3.0 0.00 0.07 0.00 77 1011.9
20191205093126 30 254 0.0 8.0 0.00 0.07 0.00 76 1012.2
20191205090058 30 304 1.0 5.0 0.00 0.07 0.00 76 1011.7
20191205084607 30 304 0.0 4.0 0.00 0.07 0.00 77 1011.3
20191205083050 30 327 1.0 5.0 0.00 0.07 0.00 78 1011.4
20191205081629 30 172 1.0 7.0 0.00 0.07 0.00 78 1011.0
20191205080058 30 344 3.0 8.0 0.00 0.07 0.00 77 1010.9